Regional Weather Roundup
Issued by NWS Midland/Odessa, TX

Skip options and go directly to product.
Home | Oldest Version | Previous Version | Current Version | All | Text Only | Save Text | Print | Product List | Glossary On

Skip product version selection by date and time.   
157
ASUS44 KMAF 281310
RWRMAF
MIDLAND AREA WEATHER ROUNDUP
NATIONAL WEATHER SERVICE MIDLAND TX
800 AM CDT TUE JUL 28 2015

...IN SOUTHWEST TEXAS AND SOUTHEAST NEW MEXICO...

CITY           SKY/WX    TMP DP  RH WIND       PRES   REMARKS
ALPINE         CLEAR     70  57  63 SW6       30.16R
ANDREWS        FAIR      75  61  60 S8        30.02R
ARTESIA        CLEAR     75  59  57 SW6       30.00S
BIG SPRING     SUNNY     75  64  69 SE12      30.02R
CARLSBAD       CLEAR     77  60  55 E3        29.99R
DRYDEN           N/A     78  72  81 VRB6      29.97R
FORT STOCKTON  CLEAR     75  64  68 S10       30.00R
GUAD PASS      PTCLDY    70  55  59 SW15      30.16R
HOBBS          MOSUNNY   75  59  57 S6        30.03R
MARFA          CLEAR     63  61  94 N5        30.14S
MIDLAND AIRPK  SUNNY     79  62  57 S7        30.00S
MIDLAND INTL   SUNNY     79  65  62 S9        29.99R
ODESSA         SUNNY     79  63  57 S9        30.00R
PECOS          CLEAR     76  60  57 CALM      29.96R HAZE
PRESIDIO       FAIR      79  57  46 MISG      30.00R
SEMINOLE       SUNNY     74  60  61 SE3       30.03R
SNYDER         SUNNY     74  65  72 S8        30.00R
WINK           SUNNY     79  62  56 SE15      29.95R
$$
...OTHER STATIONS IN TEXAS...

CITY           SKY/WX    TMP DP  RH WIND       PRES   REMARKS
ABILENE        SUNNY     77  67  71 S8        29.98R
AMARILLO       SUNNY     72  62  71 S8        30.00R
AUSTIN         PTSUNNY   76  76 100 S9        29.97R FOG
BROWNSVILLE    SUNNY     80  78  94 SE7       29.93R FOG
CORPUS CHRISTI MOSUNNY   82  78  88 SE8       29.94R
DALLAS FTW     SUNNY     82  70  66 SW13      29.95R
DEL RIO        CLOUDY    78  72  81 E9        29.93R
EL PASO        PTCLDY    78  56  46 S14       30.05R
HOUSTON INT    MOSUNNY   80  78  94 S3        30.00R
LUBBOCK        MOSUNNY   75  61  61 S5        30.01R
SAN ANGELO     SUNNY     78  70  76 S9        29.99R
SAN ANTONIO    PTSUNNY   80  73  79 S12       29.99R
WACO           MOSUNNY   78  73  84 S13       29.98R
WICHITA FALLS  NOT AVBL
$$
...OTHER LOCATIONS IN NEW MEXICO...

CITY           SKY/WX    TMP DP  RH WIND       PRES   REMARKS
ALAMAGORDO     MOCLDY    75  57  53 S9        30.09R
ALBUQUERQUE    PTCLDY    71  52  50 E3        30.14R
CANNON AFB     SUNNY     74  59  59 S7        30.05R
CLOVIS         SUNNY     70  59  68 SW8       30.06R
HOLLOMAN AFB   CLOUDY    78  57  48 SE13      30.06R
ROSWELL        PTCLDY    73  59  61 CALM      30.00R
RUIDOSO          N/A    N/A N/A N/A MISG        N/A
SANTA FE       PTCLDY    68  51  54 SE5       30.20R
TRUTH OR CONSE MOCLDY    75  57  53 SW3       30.12R
TUCUMCARI      MOSUNNY   73  58  59 W7        30.03R
$$

USA.gov is the U.S. government's official web portal to all federal, state and local government web resources and services.